TimeEDT,TemperatureF,Dew PointF,Humidity,Sea Level PressureIn,VisibilityMPH,Wind Direction,Wind SpeedMPH,Gust SpeedMPH,PrecipitationIn,Events,Conditions,WindDirDegrees,DateUTC
12:51 AM,68.0,62.1,81,30.27,10.0,NE,6.9,-,N/A,,Clear,50,2011-10-10 04:51:00
1:51 AM,68.0,62.1,81,30.26,10.0,NE,6.9,-,N/A,,Clear,50,2011-10-10 05:51:00
2:51 AM,68.0,63.0,84,30.23,10.0,NE,5.8,-,N/A,,Clear,50,2011-10-10 06:51:00
3:51 AM,68.0,63.0,84,30.21,10.0,NE,8.1,-,N/A,,Clear,50,2011-10-10 07:51:00
4:51 AM,68.0,64.0,87,30.21,10.0,NE,8.1,-,N/A,,Clear,50,2011-10-10 08:51:00
5:51 AM,68.0,64.0,87,30.21,10.0,NE,6.9,-,N/A,,Clear,40,2011-10-10 09:51:00
6:51 AM,68.0,64.0,87,30.21,10.0,ENE,6.9,-,N/A,,Clear,60,2011-10-10 10:51:00
7:51 AM,69.1,64.0,84,30.22,10.0,NE,9.2,-,N/A,,Clear,50,2011-10-10 11:51:00
8:51 AM,71.1,64.9,81,30.22,10.0,ENE,8.1,17.3,N/A,,Clear,60,2011-10-10 12:51:00
9:51 AM,73.9,66.0,76,30.22,10.0,ENE,9.2,-,N/A,,Partly Cloudy,60,2011-10-10 13:51:00
10:51 AM,73.9,66.0,76,30.22,10.0,ENE,8.1,-,N/A,,Partly Cloudy,60,2011-10-10 14:51:00
11:51 AM,75.9,66.0,71,30.21,10.0,NE,6.9,-,N/A,,Clear,50,2011-10-10 15:51:00
12:51 PM,75.0,66.0,73,30.18,10.0,ENE,5.8,-,N/A,,Clear,60,2011-10-10 16:51:00
1:09 PM,75.2,66.2,73,30.17,10.0,ENE,8.1,-,N/A,,Partly Cloudy,70,2011-10-10 17:09:00
1:51 PM,75.0,66.0,73,30.15,10.0,ENE,8.1,-,N/A,,Clear,60,2011-10-10 17:51:00
2:51 PM,77.0,66.9,71,30.13,10.0,ENE,8.1,-,N/A,,Clear,60,2011-10-10 18:51:00
3:51 PM,73.9,64.9,73,30.12,10.0,NE,8.1,-,N/A,,Clear,50,2011-10-10 19:51:00
4:51 PM,73.0,64.0,73,30.12,10.0,ENE,8.1,-,N/A,,Clear,60,2011-10-10 20:51:00
5:51 PM,72.0,64.0,76,30.11,10.0,ENE,9.2,-,N/A,,Clear,60,2011-10-10 21:51:00
6:40 PM,71.6,64.4,78,30.11,10.0,ENE,6.9,-,N/A,,Partly Cloudy,60,2011-10-10 22:40:00
6:51 PM,71.1,64.0,78,30.10,10.0,ENE,8.1,-,N/A,,Clear,60,2011-10-10 22:51:00
7:51 PM,72.0,64.9,78,30.09,10.0,ENE,6.9,-,N/A,,Clear,60,2011-10-10 23:51:00
8:51 PM,72.0,66.0,81,30.09,10.0,ENE,8.1,-,N/A,,Clear,60,2011-10-11 00:51:00
9:51 PM,73.0,66.9,81,30.09,10.0,East,9.2,-,N/A,,Clear,80,2011-10-11 01:51:00
10:51 PM,73.0,66.0,79,30.07,10.0,East,8.1,-,N/A,,Mostly Cloudy,80,2011-10-11 02:51:00
11:51 PM,73.0,66.0,79,30.06,10.0,ENE,9.2,-,N/A,,Overcast,70,2011-10-11 03:51:00